Year,Month,Day,Hour,Minute,Value (Times are PST for temperature in C)
2007,09,18,00,00,12.30
2007,09,18,00,01,12.30
2007,09,18,00,02,12.30
2007,09,18,00,05,12.30
2007,09,18,00,06,12.30
2007,09,18,00,07,12.30
2007,09,18,00,08,12.30
2007,09,18,00,09,12.30
2007,09,18,00,10,12.30
2007,09,18,00,11,12.30
2007,09,18,00,12,12.30
2007,09,18,00,13,12.30
2007,09,18,00,14,12.30
2007,09,18,00,15,12.30
2007,09,18,00,16,12.30
2007,09,18,00,17,12.30
2007,09,18,00,18,12.30
2007,09,18,00,19,12.30
2007,09,18,00,20,12.30
2007,09,18,00,21,12.30
2007,09,18,00,22,12.30
2007,09,18,00,23,12.30
2007,09,18,00,24,12.30
2007,09,18,00,25,12.30
2007,09,18,00,26,12.30
2007,09,18,00,27,12.30
2007,09,18,00,28,12.30
2007,09,18,00,29,12.30
2007,09,18,00,30,12.30
2007,09,18,00,31,12.30
2007,09,18,00,32,12.30
2007,09,18,00,33,12.30
2007,09,18,00,34,12.30
2007,09,18,00,35,12.30
2007,09,18,00,36,12.30
2007,09,18,00,37,12.30
2007,09,18,00,38,12.30
2007,09,18,00,39,12.30
2007,09,18,00,40,12.30
2007,09,18,00,41,12.20
2007,09,18,00,42,12.20
2007,09,18,00,43,12.20
2007,09,18,00,45,12.20
2007,09,18,00,46,12.20
2007,09,18,00,47,12.20
2007,09,18,00,48,12.20
2007,09,18,00,49,12.20
2007,09,18,00,50,12.20
2007,09,18,00,51,12.20
2007,09,18,00,52,12.10
2007,09,18,00,53,12.10
2007,09,18,00,54,12.10
2007,09,18,00,55,12.10
2007,09,18,00,56,12.10
2007,09,18,00,57,12.10
2007,09,18,00,58,12.10
2007,09,18,00,59,12.00
2007,09,18,01,00,12.00
2007,09,18,01,01,12.00
2007,09,18,01,02,12.00
2007,09,18,01,03,12.00
2007,09,18,01,04,12.00
2007,09,18,01,05,12.00
2007,09,18,01,06,11.90
2007,09,18,01,07,11.90
2007,09,18,01,08,11.90
2007,09,18,01,09,11.90
2007,09,18,01,10,11.90
2007,09,18,01,11,11.90
2007,09,18,01,12,11.90
2007,09,18,01,13,11.90
2007,09,18,01,14,11.80
2007,09,18,01,15,11.80
2007,09,18,01,16,11.80
2007,09,18,01,17,11.80
2007,09,18,01,18,11.80
2007,09,18,01,19,11.80
2007,09,18,01,20,11.80
2007,09,18,01,21,11.80
2007,09,18,01,22,11.80
2007,09,18,01,23,11.80
2007,09,18,01,24,11.80
2007,09,18,01,25,11.80
2007,09,18,01,26,11.70
2007,09,18,01,27,11.70
2007,09,18,01,28,11.70
2007,09,18,01,29,11.70
2007,09,18,01,31,11.70
2007,09,18,01,32,11.60
2007,09,18,01,33,11.60
2007,09,18,01,34,11.60
2007,09,18,01,35,11.60
2007,09,18,01,36,11.60
2007,09,18,01,37,11.60
2007,09,18,01,38,11.60
2007,09,18,01,39,11.60
2007,09,18,01,40,11.60
2007,09,18,01,41,11.60
2007,09,18,01,42,11.60
2007,09,18,01,43,11.40
2007,09,18,01,44,11.40
2007,09,18,01,45,11.40
2007,09,18,01,46,11.40
2007,09,18,01,47,11.40
2007,09,18,01,48,11.40
2007,09,18,01,49,11.40
2007,09,18,01,50,11.40
2007,09,18,01,51,11.40
2007,09,18,01,52,11.30
2007,09,18,01,53,11.30
2007,09,18,01,54,11.30
2007,09,18,01,55,11.20
2007,09,18,01,56,11.20
2007,09,18,01,57,11.20
2007,09,18,01,58,11.10
2007,09,18,02,00,11.10
2007,09,18,02,01,11.10
2007,09,18,02,02,11.10
2007,09,18,02,03,11.10
2007,09,18,02,04,11.10
2007,09,18,02,05,10.90
2007,09,18,02,06,10.90
2007,09,18,02,07,10.90
2007,09,18,02,08,10.90
2007,09,18,02,09,10.90
2007,09,18,02,10,10.90
2007,09,18,02,11,10.90
2007,09,18,02,12,10.90
2007,09,18,02,13,10.90
2007,09,18,02,14,10.90
2007,09,18,02,15,10.90
2007,09,18,02,16,10.90
2007,09,18,02,17,10.90
2007,09,18,02,18,10.80
2007,09,18,02,19,10.80
2007,09,18,02,20,10.80
2007,09,18,02,21,10.80
2007,09,18,02,22,10.80
2007,09,18,02,23,10.80
2007,09,18,02,24,10.80
2007,09,18,02,25,10.80
2007,09,18,02,26,10.80
2007,09,18,02,27,10.80
2007,09,18,02,28,10.80
2007,09,18,02,29,10.80
2007,09,18,02,30,10.80
2007,09,18,02,31,10.80
2007,09,18,02,32,10.80
2007,09,18,02,33,10.80
2007,09,18,02,34,10.80
2007,09,18,02,35,10.80
2007,09,18,02,36,10.80
2007,09,18,02,37,10.80
2007,09,18,02,38,10.80
2007,09,18,02,39,10.80
2007,09,18,02,40,10.80
2007,09,18,02,41,10.80
2007,09,18,02,42,10.70
2007,09,18,02,43,10.70
2007,09,18,02,44,10.70
2007,09,18,02,45,10.70
2007,09,18,02,46,10.70
2007,09,18,02,47,10.60
2007,09,18,02,48,10.60
2007,09,18,02,49,10.60
2007,09,18,02,50,10.60
2007,09,18,02,51,10.60
2007,09,18,02,52,10.60
2007,09,18,02,53,10.60
2007,09,18,02,54,10.60
2007,09,18,02,55,10.60
2007,09,18,02,56,10.40
2007,09,18,02,57,10.40
2007,09,18,02,58,10.40
2007,09,18,02,59,10.40
2007,09,18,03,00,10.40
2007,09,18,03,01,10.40
2007,09,18,03,02,10.40
2007,09,18,03,03,10.40
2007,09,18,03,04,10.40
2007,09,18,03,05,10.40
2007,09,18,03,09,10.30
2007,09,18,03,10,10.30
2007,09,18,03,11,10.30
2007,09,18,03,12,10.30
2007,09,18,03,13,10.20
2007,09,18,03,14,10.20
2007,09,18,03,15,10.20
2007,09,18,03,16,10.20
2007,09,18,03,17,10.20
2007,09,18,03,18,10.20
2007,09,18,03,19,10.20
2007,09,18,03,20,10.20
2007,09,18,03,21,10.20
2007,09,18,03,22,10.10
2007,09,18,03,23,10.10
2007,09,18,03,24,10.10
2007,09,18,03,25,10.10
2007,09,18,03,26,10.10
2007,09,18,03,27,10.10
2007,09,18,03,28,10.10
2007,09,18,03,29,10.10
2007,09,18,03,30,10.10
2007,09,18,03,31,10.10
2007,09,18,03,32,10.10
2007,09,18,03,33,10.10
2007,09,18,03,34,10.10
2007,09,18,03,35,10.10
2007,09,18,03,36,10.10
2007,09,18,03,37,10.10
2007,09,18,03,38,10.10
2007,09,18,03,39,10.10
2007,09,18,03,40,10.10
2007,09,18,03,41,10.10
2007,09,18,03,42,9.90
2007,09,18,03,43,9.90
2007,09,18,03,44,9.90
2007,09,18,03,45,9.90
2007,09,18,03,46,9.90
2007,09,18,03,47,9.90
2007,09,18,03,48,9.90
2007,09,18,03,49,9.90
2007,09,18,03,50,9.90
2007,09,18,03,51,9.90
2007,09,18,03,52,9.90
2007,09,18,03,53,9.90
2007,09,18,03,54,9.80
2007,09,18,03,55,9.80
2007,09,18,03,56,9.80
2007,09,18,03,57,9.80
2007,09,18,03,58,9.80
2007,09,18,03,59,9.80
2007,09,18,04,00,9.70
2007,09,18,04,01,9.70
2007,09,18,04,02,9.70
2007,09,18,04,03,9.70
2007,09,18,04,04,9.70
2007,09,18,04,05,9.70
2007,09,18,04,06,9.70
2007,09,18,04,07,9.70
2007,09,18,04,08,9.70
2007,09,18,04,09,9.70
2007,09,18,04,10,9.60
2007,09,18,04,11,9.60
2007,09,18,04,12,9.60
2007,09,18,04,13,9.50
2007,09,18,04,14,9.50
2007,09,18,04,15,9.50
2007,09,18,04,16,9.50
2007,09,18,04,17,9.40
2007,09,18,04,18,9.40
2007,09,18,04,19,9.40
2007,09,18,04,20,9.40
2007,09,18,04,21,9.40
2007,09,18,04,22,9.40
2007,09,18,04,23,9.30
2007,09,18,04,24,9.30
2007,09,18,04,25,9.30
2007,09,18,04,26,9.30
2007,09,18,04,27,9.20
2007,09,18,04,28,9.20
2007,09,18,04,30,9.20
2007,09,18,04,31,9.20
2007,09,18,04,32,9.20
2007,09,18,04,33,9.20
2007,09,18,04,34,9.20
2007,09,18,04,35,9.20
2007,09,18,04,36,9.20
2007,09,18,04,37,9.20
2007,09,18,04,38,9.20
2007,09,18,04,39,9.20
2007,09,18,04,40,9.20
2007,09,18,04,41,9.20
2007,09,18,04,42,9.30
2007,09,18,04,43,9.30
2007,09,18,04,44,9.30
2007,09,18,04,45,9.30
2007,09,18,04,46,9.30
2007,09,18,04,47,9.30
2007,09,18,04,48,9.40
2007,09,18,04,49,9.40
2007,09,18,04,50,9.40
2007,09,18,04,51,9.40
2007,09,18,04,52,9.40
2007,09,18,04,53,9.40
2007,09,18,04,54,9.50
2007,09,18,04,55,9.50
2007,09,18,04,56,9.60
2007,09,18,04,57,9.60
2007,09,18,04,58,9.70
2007,09,18,04,59,9.70
2007,09,18,05,00,9.70
2007,09,18,05,01,9.70
2007,09,18,05,02,9.80
2007,09,18,05,03,9.80
2007,09,18,05,04,9.80
2007,09,18,05,05,9.90
2007,09,18,05,06,9.90
2007,09,18,05,07,9.90
2007,09,18,05,08,9.90
2007,09,18,05,09,9.90
2007,09,18,05,10,9.90
2007,09,18,05,11,9.90
2007,09,18,05,12,9.90
2007,09,18,05,13,9.90
2007,09,18,05,14,9.90
2007,09,18,05,15,9.90
2007,09,18,05,16,9.90
2007,09,18,05,17,9.90
2007,09,18,05,18,9.90
2007,09,18,05,19,9.90
2007,09,18,05,20,9.90
2007,09,18,05,21,9.90
2007,09,18,05,22,9.90
2007,09,18,05,23,9.80
2007,09,18,05,24,9.80
2007,09,18,05,25,9.80
2007,09,18,05,26,9.80
2007,09,18,05,27,9.80
2007,09,18,05,28,9.80
2007,09,18,05,29,9.80
2007,09,18,05,30,9.70
2007,09,18,05,31,9.70
2007,09,18,05,32,9.70
2007,09,18,05,33,9.70
2007,09,18,05,34,9.70
2007,09,18,05,35,9.70
2007,09,18,05,36,9.70
2007,09,18,05,37,9.70
2007,09,18,05,38,9.70
2007,09,18,05,39,9.70
2007,09,18,05,40,9.70
2007,09,18,05,41,9.70
2007,09,18,05,42,9.60
2007,09,18,05,43,9.60
2007,09,18,05,44,9.60
2007,09,18,05,45,9.60
2007,09,18,05,46,9.60
2007,09,18,05,47,9.50
2007,09,18,05,48,9.50
2007,09,18,05,49,9.50
2007,09,18,05,50,9.50
2007,09,18,05,51,9.40
2007,09,18,05,52,9.40
2007,09,18,05,53,9.40
2007,09,18,05,54,9.40
2007,09,18,05,55,9.40
2007,09,18,05,56,9.40
2007,09,18,05,57,9.40
2007,09,18,05,58,9.30
2007,09,18,05,59,9.30
2007,09,18,06,00,9.30
2007,09,18,06,01,9.30
2007,09,18,06,02,9.30
2007,09,18,06,03,9.30
2007,09,18,06,04,9.20
2007,09,18,06,05,9.20
2007,09,18,06,06,9.20
2007,09,18,06,07,9.20
2007,09,18,06,08,9.20
2007,09,18,06,09,9.20
2007,09,18,06,10,9.20
2007,09,18,06,11,9.10
2007,09,18,06,12,9.10
2007,09,18,06,13,9.10
2007,09,18,06,14,9.00
2007,09,18,06,15,9.00
2007,09,18,06,16,9.00
2007,09,18,06,17,8.90
2007,09,18,06,18,8.90
2007,09,18,06,19,8.90
2007,09,18,06,20,8.90
2007,09,18,06,21,8.80
2007,09,18,06,22,8.80
2007,09,18,06,23,8.80
2007,09,18,06,24,8.70
2007,09,18,06,25,8.70
2007,09,18,06,26,8.70
2007,09,18,06,27,8.70
2007,09,18,06,28,8.70
2007,09,18,06,29,8.70
2007,09,18,06,31,8.70
2007,09,18,06,32,8.60
2007,09,18,06,33,8.60
2007,09,18,06,34,8.60
2007,09,18,06,35,8.60
2007,09,18,06,36,8.50
2007,09,18,06,37,8.50
2007,09,18,06,38,8.50
2007,09,18,06,39,8.40
2007,09,18,06,40,8.40
2007,09,18,06,41,8.40
2007,09,18,06,42,8.30
2007,09,18,06,43,8.30
2007,09,18,06,44,8.30
2007,09,18,06,45,8.30
2007,09,18,06,46,8.20
2007,09,18,06,47,8.20
2007,09,18,06,48,8.20
2007,09,18,06,49,8.20
2007,09,18,06,50,8.20
2007,09,18,06,51,8.20
2007,09,18,06,52,8.20
2007,09,18,06,53,8.10
2007,09,18,06,54,8.10
2007,09,18,06,55,8.10
2007,09,18,06,56,8.10
2007,09,18,06,57,8.10
2007,09,18,06,58,8.10
2007,09,18,06,59,8.10
2007,09,18,07,00,8.00
2007,09,18,07,03,8.00
2007,09,18,07,04,7.90
2007,09,18,07,06,7.90
2007,09,18,07,07,7.90
2007,09,18,07,08,7.90
2007,09,18,07,09,7.90
2007,09,18,07,11,7.80
2007,09,18,07,12,7.80
2007,09,18,07,13,7.80
2007,09,18,07,15,7.80
2007,09,18,07,16,7.80
2007,09,18,07,17,7.80
2007,09,18,07,18,7.80
2007,09,18,07,19,7.80
2007,09,18,07,20,7.80
2007,09,18,07,21,7.80
2007,09,18,07,22,7.80
2007,09,18,07,23,7.80
2007,09,18,07,24,7.80
2007,09,18,07,25,7.70
2007,09,18,07,26,7.70
2007,09,18,07,27,7.70
2007,09,18,07,28,7.70
2007,09,18,07,29,7.70
2007,09,18,07,30,7.70
2007,09,18,07,31,7.70
2007,09,18,07,32,7.70
2007,09,18,07,33,7.70
2007,09,18,07,34,7.70
2007,09,18,07,35,7.70
2007,09,18,07,36,7.70
2007,09,18,07,37,7.70
2007,09,18,07,38,7.70
2007,09,18,07,39,7.70
2007,09,18,07,40,7.70
2007,09,18,07,41,7.70
2007,09,18,07,42,7.80
2007,09,18,07,43,7.80
2007,09,18,07,44,7.80
2007,09,18,07,45,7.80
2007,09,18,07,46,7.80
2007,09,18,07,47,7.80
2007,09,18,07,48,7.80
2007,09,18,07,49,7.80
2007,09,18,07,50,7.80
2007,09,18,07,51,7.80
2007,09,18,07,52,7.80
2007,09,18,07,53,7.80
2007,09,18,07,54,7.80
2007,09,18,07,55,7.80
2007,09,18,07,56,7.80
2007,09,18,07,57,7.80
2007,09,18,07,58,7.80
2007,09,18,07,59,7.80
2007,09,18,08,00,7.80
2007,09,18,08,01,7.80
2007,09,18,08,02,7.90
2007,09,18,08,03,7.90
2007,09,18,08,04,7.90
2007,09,18,08,05,7.90
2007,09,18,08,06,7.90
2007,09,18,08,07,7.90
2007,09,18,08,08,8.00
2007,09,18,08,09,8.00
2007,09,18,08,10,8.00
2007,09,18,08,11,8.10
2007,09,18,08,12,8.10
2007,09,18,08,13,8.10
2007,09,18,08,14,8.20
2007,09,18,08,15,8.20
2007,09,18,08,16,8.20
2007,09,18,08,17,8.20
2007,09,18,08,18,8.20
2007,09,18,08,19,8.20
2007,09,18,08,20,8.20
2007,09,18,08,21,8.20
2007,09,18,08,22,8.20
2007,09,18,08,23,8.20
2007,09,18,08,24,8.30
2007,09,18,08,25,8.30
2007,09,18,08,26,8.30
2007,09,18,08,27,8.30
2007,09,18,08,28,8.30
2007,09,18,08,29,8.30
2007,09,18,08,30,8.40
2007,09,18,08,31,8.40
2007,09,18,08,32,8.40
2007,09,18,08,33,8.50
2007,09,18,08,34,8.50
2007,09,18,08,35,8.60
2007,09,18,08,36,8.60
2007,09,18,08,37,8.70
2007,09,18,08,38,8.70
2007,09,18,08,39,8.70
2007,09,18,08,40,8.80
2007,09,18,08,41,8.80
2007,09,18,08,42,8.90
2007,09,18,08,43,8.90
2007,09,18,08,44,9.00
2007,09,18,08,45,9.00
2007,09,18,08,46,9.10
2007,09,18,08,47,9.10
2007,09,18,08,48,9.20
2007,09,18,08,49,9.20
2007,09,18,08,50,9.20
2007,09,18,08,51,9.30
2007,09,18,08,52,9.30
2007,09,18,08,53,9.40
2007,09,18,08,54,9.40
2007,09,18,08,55,9.40
2007,09,18,08,56,9.50
2007,09,18,08,57,9.60
2007,09,18,08,58,9.60
2007,09,18,08,59,9.70
2007,09,18,09,00,9.70
2007,09,18,09,01,9.70
2007,09,18,09,02,9.70
2007,09,18,09,03,9.80
2007,09,18,09,04,9.80
2007,09,18,09,05,9.90
2007,09,18,09,06,9.90
2007,09,18,09,07,9.90
2007,09,18,09,08,9.90
2007,09,18,09,09,10.10
2007,09,18,09,10,10.10
2007,09,18,09,11,10.10
2007,09,18,09,12,10.20
2007,09,18,09,13,10.20
2007,09,18,09,14,10.30
2007,09,18,09,15,10.30
2007,09,18,09,16,10.30
2007,09,18,09,17,10.40
2007,09,18,09,18,10.40
2007,09,18,09,19,10.40
2007,09,18,09,20,10.40
2007,09,18,09,21,10.60
2007,09,18,09,22,10.60
2007,09,18,09,23,10.60
2007,09,18,09,24,10.70
2007,09,18,09,25,10.70
2007,09,18,09,26,10.80
2007,09,18,09,27,10.80
2007,09,18,09,28,10.90
2007,09,18,09,29,10.90
2007,09,18,09,30,10.90
2007,09,18,09,31,11.10
2007,09,18,09,32,11.10
2007,09,18,09,33,11.10
2007,09,18,09,34,11.20
2007,09,18,09,35,11.20
2007,09,18,09,36,11.30
2007,09,18,09,37,11.30
2007,09,18,09,38,11.40
2007,09,18,09,39,11.40
2007,09,18,09,40,11.40
2007,09,18,09,41,11.60
2007,09,18,09,42,11.60
2007,09,18,09,43,11.60
2007,09,18,09,44,11.60
2007,09,18,09,45,11.70
2007,09,18,09,46,11.70
2007,09,18,09,47,11.80
2007,09,18,09,48,11.80
2007,09,18,09,49,11.80
2007,09,18,09,50,11.90
2007,09,18,09,51,11.90
2007,09,18,09,52,11.90
2007,09,18,09,53,12.00
2007,09,18,09,54,12.00
2007,09,18,09,55,12.10
2007,09,18,09,56,12.10
2007,09,18,09,57,12.20
2007,09,18,09,58,12.20
2007,09,18,09,59,12.20
2007,09,18,10,00,12.30
2007,09,18,10,01,12.30
2007,09,18,10,02,12.30
2007,09,18,10,03,12.30
2007,09,18,10,05,12.30
2007,09,18,10,06,12.30
2007,09,18,10,07,12.30
2007,09,18,10,08,12.30
2007,09,18,10,09,12.40
2007,09,18,10,10,12.40
2007,09,18,10,11,12.40
2007,09,18,10,12,12.40
2007,09,18,10,13,12.50
2007,09,18,10,15,12.50
2007,09,18,10,16,12.60
2007,09,18,10,17,12.60
2007,09,18,10,18,12.60
2007,09,18,10,19,12.70
2007,09,18,10,20,12.70
2007,09,18,10,21,12.70
2007,09,18,10,22,12.80
2007,09,18,10,23,12.80
2007,09,18,10,24,12.80
2007,09,18,10,25,12.80
2007,09,18,10,26,12.80
2007,09,18,10,27,12.80
2007,09,18,10,28,12.80
2007,09,18,10,29,12.80
2007,09,18,10,30,12.90
2007,09,18,10,31,12.90
2007,09,18,10,32,12.80
2007,09,18,10,33,12.80
2007,09,18,10,34,12.90
2007,09,18,10,35,12.80
2007,09,18,10,36,12.80
2007,09,18,10,37,12.80
2007,09,18,10,38,12.80
2007,09,18,10,39,12.80
2007,09,18,10,40,12.80
2007,09,18,10,41,12.70
2007,09,18,10,42,12.70
2007,09,18,10,43,12.70
2007,09,18,10,44,12.60
2007,09,18,10,45,12.60
2007,09,18,10,46,12.60
2007,09,18,10,47,12.50
2007,09,18,10,48,12.40
2007,09,18,10,49,12.40
2007,09,18,10,50,12.30
2007,09,18,10,51,12.30
2007,09,18,10,52,12.30
2007,09,18,10,53,12.30
2007,09,18,10,54,12.30
2007,09,18,10,55,12.30
2007,09,18,10,56,12.30
2007,09,18,10,57,12.30
2007,09,18,10,58,12.30
2007,09,18,10,59,12.30
2007,09,18,11,00,12.30
2007,09,18,11,01,12.30
2007,09,18,11,02,12.30
2007,09,18,11,03,12.30
2007,09,18,11,04,12.30
2007,09,18,11,05,12.30
2007,09,18,11,06,12.30
2007,09,18,11,07,12.30
2007,09,18,11,08,12.30
2007,09,18,11,09,12.30
2007,09,18,11,10,12.30
2007,09,18,11,11,12.30
2007,09,18,11,12,12.40
2007,09,18,11,13,12.40
2007,09,18,11,14,12.40
2007,09,18,11,15,12.40
2007,09,18,11,16,12.40
2007,09,18,11,17,12.40
2007,09,18,11,18,12.40
2007,09,18,11,19,12.30
2007,09,18,11,20,12.30
2007,09,18,11,21,12.30
2007,09,18,11,22,12.30
2007,09,18,11,23,12.20
2007,09,18,11,24,12.20
2007,09,18,11,25,12.20
2007,09,18,11,26,12.20
2007,09,18,11,27,12.20
2007,09,18,11,28,12.20
2007,09,18,11,29,12.30
2007,09,18,11,30,12.30
2007,09,18,11,31,12.30
2007,09,18,11,32,12.30
2007,09,18,11,33,12.30
2007,09,18,11,34,12.40
2007,09,18,11,35,12.40
2007,09,18,11,36,12.40
2007,09,18,11,37,12.40
2007,09,18,11,38,12.30
2007,09,18,11,39,12.30
2007,09,18,11,40,12.30
2007,09,18,11,41,12.30
2007,09,18,11,42,12.30
2007,09,18,11,43,12.30
2007,09,18,11,44,12.30
2007,09,18,11,45,12.30
2007,09,18,11,46,12.30
2007,09,18,11,47,12.30
2007,09,18,11,48,12.30
2007,09,18,11,49,12.30
2007,09,18,11,50,12.40
2007,09,18,11,51,12.40
2007,09,18,11,52,12.40
2007,09,18,11,53,12.40
2007,09,18,11,54,12.50
2007,09,18,11,55,12.50
2007,09,18,11,56,12.50
2007,09,18,11,57,12.50
2007,09,18,11,58,12.60
2007,09,18,11,59,12.60
2007,09,18,12,00,12.60
2007,09,18,12,01,12.70
2007,09,18,12,02,12.70
2007,09,18,12,03,12.70
2007,09,18,12,04,12.80
2007,09,18,12,06,12.80
2007,09,18,12,07,12.80
2007,09,18,12,08,12.80
2007,09,18,12,09,12.90
2007,09,18,12,10,12.90
2007,09,18,12,11,12.90
2007,09,18,12,12,13.00
2007,09,18,12,13,13.10
2007,09,18,12,14,13.10
2007,09,18,12,15,13.20
2007,09,18,12,16,13.20
2007,09,18,12,17,13.30
2007,09,18,12,18,13.30
2007,09,18,12,19,13.30
2007,09,18,12,20,13.40
2007,09,18,12,21,13.40
2007,09,18,12,22,13.50
2007,09,18,12,23,13.50
2007,09,18,12,24,13.60
2007,09,18,12,25,13.60
2007,09,18,12,26,13.70
2007,09,18,12,27,13.70
2007,09,18,12,28,13.70
2007,09,18,12,29,13.70
2007,09,18,12,30,13.70
2007,09,18,12,31,13.80
2007,09,18,12,32,13.80
2007,09,18,12,33,13.90
2007,09,18,12,34,13.90
2007,09,18,12,35,13.90
2007,09,18,12,36,14.00
2007,09,18,12,37,14.00
2007,09,18,12,38,14.10
2007,09,18,12,39,14.10
2007,09,18,12,40,14.20
2007,09,18,12,41,14.20
2007,09,18,12,42,14.20
2007,09,18,12,43,14.20
2007,09,18,12,44,14.30
2007,09,18,12,45,14.40
2007,09,18,12,46,14.50
2007,09,18,12,47,14.70
2007,09,18,12,48,14.80
2007,09,18,12,49,14.80
2007,09,18,12,50,14.90
2007,09,18,12,51,15.00
2007,09,18,12,52,15.10
2007,09,18,12,53,15.20
2007,09,18,12,54,15.20
2007,09,18,12,55,15.30
2007,09,18,12,56,15.30
2007,09,18,12,57,15.30
2007,09,18,12,58,15.40
2007,09,18,12,59,15.40
2007,09,18,13,00,15.50
2007,09,18,13,01,15.50
2007,09,18,13,02,15.50
2007,09,18,13,03,15.50
2007,09,18,13,04,15.50
2007,09,18,13,05,15.50
2007,09,18,13,06,15.50
2007,09,18,13,07,15.50
2007,09,18,13,08,15.50
2007,09,18,13,09,15.50
2007,09,18,13,10,15.40
2007,09,18,13,11,15.40
2007,09,18,13,12,15.40
2007,09,18,13,13,15.30
2007,09,18,13,14,15.30
2007,09,18,13,15,15.30
2007,09,18,13,16,15.30
2007,09,18,13,17,15.30
2007,09,18,13,18,15.30
2007,09,18,13,19,15.30
2007,09,18,13,20,15.30
2007,09,18,13,21,15.30
2007,09,18,13,22,15.30
2007,09,18,13,23,15.20
2007,09,18,13,24,15.30
2007,09,18,13,25,15.30
2007,09,18,13,26,15.30
2007,09,18,13,27,15.30
2007,09,18,13,28,15.30
2007,09,18,13,29,15.40
2007,09,18,13,30,15.50
2007,09,18,13,31,15.50
2007,09,18,13,32,15.60
2007,09,18,13,33,15.70
2007,09,18,13,34,15.80
2007,09,18,13,35,15.80
2007,09,18,13,36,15.90
2007,09,18,13,37,16.10
2007,09,18,13,38,16.10
2007,09,18,13,39,16.20
2007,09,18,13,40,16.30
2007,09,18,13,41,16.30
2007,09,18,13,42,16.30
2007,09,18,13,43,16.40
2007,09,18,13,44,16.40
2007,09,18,13,45,16.40
2007,09,18,13,46,16.40
2007,09,18,13,47,16.60
2007,09,18,13,48,16.60
2007,09,18,13,49,16.70
2007,09,18,13,50,16.70
2007,09,18,13,51,16.70
2007,09,18,13,52,16.70
2007,09,18,13,53,16.80
2007,09,18,13,54,16.90
2007,09,18,13,55,16.90
2007,09,18,13,56,16.80
2007,09,18,13,57,16.80
2007,09,18,13,58,16.90
2007,09,18,14,00,17.00
2007,09,18,14,01,17.10
2007,09,18,14,02,17.10
2007,09,18,14,03,17.20
2007,09,18,14,04,17.30
2007,09,18,14,05,17.30
2007,09,18,14,07,17.40
2007,09,18,14,08,17.40
2007,09,18,14,09,17.50
2007,09,18,14,10,17.60
2007,09,18,14,11,17.60
2007,09,18,14,12,17.70
2007,09,18,14,13,17.70
2007,09,18,14,14,17.70
2007,09,18,14,15,17.70
2007,09,18,14,16,17.70
2007,09,18,14,17,17.70
2007,09,18,14,18,17.70
2007,09,18,14,19,17.70
2007,09,18,14,20,17.80
2007,09,18,14,21,17.80
2007,09,18,14,22,17.80
2007,09,18,14,23,17.80
2007,09,18,14,24,17.80
2007,09,18,14,25,17.70
2007,09,18,14,26,17.70
2007,09,18,14,27,17.60
2007,09,18,14,28,17.60
2007,09,18,14,29,17.60
2007,09,18,14,30,17.50
2007,09,18,14,31,17.40
2007,09,18,14,32,17.30
2007,09,18,14,33,17.30
2007,09,18,14,34,17.20
2007,09,18,14,35,17.10
2007,09,18,14,36,17.00
2007,09,18,14,37,16.90
2007,09,18,14,38,16.80
2007,09,18,14,39,16.70
2007,09,18,14,40,16.70
2007,09,18,14,41,16.70
2007,09,18,14,42,16.60
2007,09,18,14,43,16.40
2007,09,18,14,45,16.20
2007,09,18,14,46,16.10
2007,09,18,14,47,15.90
2007,09,18,14,48,15.80
2007,09,18,14,49,15.80
2007,09,18,14,50,15.70
2007,09,18,14,51,15.60
2007,09,18,14,52,15.50
2007,09,18,14,53,15.40
2007,09,18,14,54,15.30
2007,09,18,14,55,15.30
2007,09,18,14,56,15.30
2007,09,18,14,57,15.20
2007,09,18,14,58,15.10
2007,09,18,14,59,15.10
2007,09,18,15,00,15.00
2007,09,18,15,01,15.00
2007,09,18,15,02,15.00
2007,09,18,15,03,14.90
2007,09,18,15,04,14.90
2007,09,18,15,05,14.90
2007,09,18,15,06,14.90
2007,09,18,15,07,14.90
2007,09,18,15,08,14.80
2007,09,18,15,09,14.80
2007,09,18,15,10,14.80
2007,09,18,15,11,14.80
2007,09,18,15,12,14.90
2007,09,18,15,13,14.90
2007,09,18,15,14,14.90
2007,09,18,15,15,14.80
2007,09,18,15,16,14.80
2007,09,18,15,17,14.80
2007,09,18,15,18,14.80
2007,09,18,15,19,14.70
2007,09,18,15,20,14.60
2007,09,18,15,21,14.50
2007,09,18,15,22,14.30
2007,09,18,15,23,14.20
2007,09,18,15,24,14.20
2007,09,18,15,25,14.10
2007,09,18,15,26,13.90
2007,09,18,15,27,13.80
2007,09,18,15,28,13.70
2007,09,18,15,29,13.70
2007,09,18,15,30,13.60
2007,09,18,15,31,13.60
2007,09,18,15,32,13.50
2007,09,18,15,33,13.50
2007,09,18,15,34,13.50
2007,09,18,15,35,13.50
2007,09,18,15,36,13.50
2007,09,18,15,37,13.50
2007,09,18,15,38,13.50
2007,09,18,15,39,13.50
2007,09,18,15,40,13.50
2007,09,18,15,41,13.50
2007,09,18,15,42,13.50
2007,09,18,15,43,13.50
2007,09,18,15,44,13.50
2007,09,18,15,45,13.50
2007,09,18,15,46,13.50
2007,09,18,15,47,13.40
2007,09,18,15,48,13.30
2007,09,18,15,49,13.20
2007,09,18,15,50,13.10
2007,09,18,15,51,13.10
2007,09,18,15,52,13.10
2007,09,18,15,53,13.00
2007,09,18,15,54,13.00
2007,09,18,15,55,12.90
2007,09,18,15,56,12.90
2007,09,18,15,57,12.90
2007,09,18,15,58,12.90
2007,09,18,15,59,12.90
2007,09,18,16,00,12.90
2007,09,18,16,01,12.90
2007,09,18,16,02,12.90
2007,09,18,16,03,12.90
2007,09,18,16,04,12.90
2007,09,18,16,05,12.90
2007,09,18,16,06,12.90
2007,09,18,16,07,12.90
2007,09,18,16,08,12.90
2007,09,18,16,09,12.80
2007,09,18,16,10,12.80
2007,09,18,16,11,12.80
2007,09,18,16,12,12.70
2007,09,18,16,13,12.70
2007,09,18,16,14,12.60
2007,09,18,16,15,12.60
2007,09,18,16,16,12.50
2007,09,18,16,17,12.50
2007,09,18,16,18,12.40
2007,09,18,16,19,12.40
2007,09,18,16,20,12.30
2007,09,18,16,21,12.30
2007,09,18,16,22,12.30
2007,09,18,16,23,12.20
2007,09,18,16,24,12.20
2007,09,18,16,25,12.10
2007,09,18,16,26,12.10
2007,09,18,16,27,12.10
2007,09,18,16,28,12.10
2007,09,18,16,29,12.10
2007,09,18,16,30,12.00
2007,09,18,16,31,12.00
2007,09,18,16,32,12.00
2007,09,18,16,33,12.00
2007,09,18,16,34,12.00
2007,09,18,16,35,12.00
2007,09,18,16,36,12.00
2007,09,18,16,37,12.00
2007,09,18,16,38,12.00
2007,09,18,16,39,12.00
2007,09,18,16,40,12.00
2007,09,18,16,41,12.00
2007,09,18,16,42,12.00
2007,09,18,16,43,12.00
2007,09,18,16,44,12.00
2007,09,18,16,45,12.10
2007,09,18,16,46,12.10
2007,09,18,16,47,12.10
2007,09,18,16,48,12.10
2007,09,18,16,49,12.10
2007,09,18,16,50,12.00
2007,09,18,16,51,12.00
2007,09,18,16,52,12.00
2007,09,18,16,53,12.00
2007,09,18,16,54,11.90
2007,09,18,16,55,11.90
2007,09,18,16,56,11.80
2007,09,18,16,57,11.80
2007,09,18,16,58,11.80
2007,09,18,16,59,11.80
2007,09,18,17,00,11.70
2007,09,18,17,01,11.70
2007,09,18,17,02,11.70
2007,09,18,17,03,11.70
2007,09,18,17,04,11.70
2007,09,18,17,05,11.70
2007,09,18,17,06,11.70
2007,09,18,17,07,11.70
2007,09,18,17,08,11.60
2007,09,18,17,09,11.60
2007,09,18,17,10,11.70
2007,09,18,17,11,11.70
2007,09,18,17,12,11.70
2007,09,18,17,13,11.80
2007,09,18,17,14,11.80
2007,09,18,17,15,11.80
2007,09,18,17,16,11.80
2007,09,18,17,17,11.80
2007,09,18,17,18,11.80
2007,09,18,17,19,11.80
2007,09,18,17,20,11.80
2007,09,18,17,21,11.80
2007,09,18,17,22,11.80
2007,09,18,17,23,11.80
2007,09,18,17,24,11.80
2007,09,18,17,25,11.80
2007,09,18,17,26,11.80
2007,09,18,17,27,11.80
2007,09,18,17,28,11.80
2007,09,18,17,29,11.80
2007,09,18,17,30,11.80
2007,09,18,17,31,11.80
2007,09,18,17,32,11.80
2007,09,18,17,33,11.80
2007,09,18,17,34,11.80
2007,09,18,17,35,11.80
2007,09,18,17,36,11.80
2007,09,18,17,37,11.80
2007,09,18,17,38,11.80
2007,09,18,17,39,11.80
2007,09,18,17,40,11.80
2007,09,18,17,41,11.80
2007,09,18,17,42,11.80
2007,09,18,17,43,11.80
2007,09,18,17,44,11.80
2007,09,18,17,45,11.90
2007,09,18,17,46,11.90
2007,09,18,17,47,11.90
2007,09,18,17,48,11.90
2007,09,18,17,49,11.90
2007,09,18,17,50,11.90
2007,09,18,17,51,11.90
2007,09,18,17,52,11.90
2007,09,18,17,53,11.90
2007,09,18,17,54,11.90